Ainsworth, NE

6:37 AM CDT on March 30, 2017 (GMT -0500)
Ainsworth Municipal

Weather History for KANW - October, 2013

Change the Weather History Date:

Saturday, October 26, 2013

  Actual Average Record
Temperature  
Mean Temperature 44 °F -  
Max Temperature 55 °F 53 °F 84 °F (2014)
Min Temperature 32 °F 33 °F 6 °F (1997)
Degree Days  
Heating Degree Days 22    
Moisture  
Dew Point 28 °F    
Average Humidity 59    
Maximum Humidity 88    
Minimum Humidity 23    
Precipitation  
Precipitation 0.00 in - - ()
Sea Level Pressure  
Sea Level Pressure 30.19 in    
Wind  
Wind Speed 7 mph (NW)    
Max Wind Speed 15 mph    
Max Gust Speed 22 mph    
Visibility 10 miles    
Events      
Averages and records for this station are not official NWS values.
T = Trace of Precipitation, MM = Missing Value Source: NWS Daily Summary

Daily Weather History Graph

Daily Weather History Graph

Search for Another Location

Airport or City:

Trip Planner

Search our weather history database for the weather conditions in past years. The results will help you decide how hot, cold, wet, or windy it might be!

Date:

Astronomy

Oct. 26, 2013 Rise Set
Actual Time 8:06 AM CDT 6:40 PM CDT
Civil Twilight 7:37 AM CDT 7:09 PM CDT
Nautical Twilight 7:04 AM CDT 7:42 PM CDT
Astronomical Twilight 6:31 AM CDT 8:15 PM CDT
Moon 12:01 AM CDT (10/26) 2:24 PM CDT (10/26)
Length of Visible Light 11h 31m
Length of Day
10h 33m
Waning Gibbous, 53% of the Moon is Illuminated
Oct 26
Waning Gibbous
Oct 26
Last Quarter
Nov 3
New
Nov 9
First Quarter
Nov 17
Full

Hourly Weather History & Observations

Time (CDT) Temp. Windchill Dew Point Humidity Pressure Visibility Wind Dir Wind Speed Gust Speed Precip Events Conditions
12:15 AM 48.0 °F - 39.7 °F 73% 30.10 in 10.0 mi NNW 8.1 mph - N/A   Clear
12:35 AM 47.5 °F - 40.1 °F 76% 30.10 in 10.0 mi NNW 4.6 mph - N/A   Clear
12:55 AM 47.7 °F - 39.7 °F 74% 30.11 in 10.0 mi NW 5.8 mph - N/A   Clear
1:15 AM 46.2 °F 42.7 °F 39.2 °F 76% 30.11 in 10.0 mi NW 6.9 mph - N/A   Clear
1:35 AM 45.1 °F 42.8 °F 38.3 °F 77% 30.12 in 10.0 mi WNW 4.6 mph - N/A   Clear
1:55 AM 45.3 °F 41.1 °F 39.0 °F 79% 30.12 in 10.0 mi NW 8.1 mph - N/A   Clear
2:15 AM 45.0 °F 41.8 °F 38.3 °F 77% 30.12 in 10.0 mi WNW 5.8 mph - N/A   Clear
2:35 AM 43.9 °F 39.9 °F 37.8 °F 79% 30.13 in 10.0 mi NW 6.9 mph - N/A   Clear
2:55 AM 43.7 °F 38.6 °F 37.6 °F 79% 30.14 in 10.0 mi NW 9.2 mph - N/A   Clear
3:15 AM 44.1 °F 39.5 °F 36.7 °F 75% 30.15 in 10.0 mi NW 8.1 mph - N/A   Clear
3:35 AM 43.5 °F 39.4 °F 36.3 °F 76% 30.16 in 10.0 mi NW 6.9 mph - N/A   Clear
3:55 AM 42.8 °F 38.6 °F 36.0 °F 77% 30.17 in 10.0 mi NW 6.9 mph - N/A   Clear
4:15 AM 42.1 °F 37.7 °F 35.6 °F 78% 30.17 in 10.0 mi NW 6.9 mph - N/A   Clear
4:35 AM 41.0 °F 36.4 °F 34.7 °F 78% 30.18 in 10.0 mi WNW 6.9 mph - N/A   Clear
4:55 AM 40.1 °F 35.3 °F 33.6 °F 78% 30.19 in 10.0 mi NW 6.9 mph - N/A   Clear
5:15 AM 39.7 °F 34.9 °F 33.3 °F 78% 30.20 in 10.0 mi NNW 6.9 mph - N/A   Clear
5:35 AM 36.9 °F 31.4 °F 31.8 °F 82% 30.21 in 10.0 mi North 6.9 mph - N/A   Clear
5:55 AM 37.4 °F 32.8 °F 31.6 °F 80% 30.22 in 10.0 mi NW 5.8 mph - N/A   Clear
6:15 AM 37.4 °F 32.8 °F 31.5 °F 79% 30.22 in 10.0 mi NNW 5.8 mph - N/A   Clear
6:35 AM 36.3 °F 31.6 °F 31.8 °F 84% 30.23 in 10.0 mi NW 5.8 mph - N/A   Clear
6:55 AM 36.9 °F 32.2 °F 31.6 °F 81% 30.24 in 10.0 mi NW 5.8 mph - N/A   Clear
7:15 AM 36.3 °F 33.7 °F 30.7 °F 80% 30.24 in 10.0 mi NW 3.5 mph - N/A   Clear
7:35 AM 35.6 °F 31.7 °F 30.7 °F 82% 30.24 in 10.0 mi NW 4.6 mph - N/A   Clear
7:55 AM 33.8 °F 27.7 °F 29.5 °F 84% 30.24 in 10.0 mi NNW 6.9 mph - N/A   Clear
8:15 AM 34.5 °F 27.9 °F 30.0 °F 84% 30.25 in 10.0 mi NW 8.1 mph - N/A   Clear
8:35 AM 32.5 °F 28.1 °F 28.4 °F 85% 30.25 in 10.0 mi WNW 4.6 mph - N/A   Clear
8:55 AM 33.3 °F 27.9 °F 30.0 °F 88% 30.26 in 10.0 mi WNW 5.8 mph - N/A   Clear
9:15 AM 35.2 °F 29.5 °F 31.1 °F 85% 30.26 in 10.0 mi NW 6.9 mph - N/A   Clear
9:35 AM 37.0 °F 31.0 °F 31.3 °F 80% 30.27 in 10.0 mi NNW 8.1 mph - N/A   Clear
9:55 AM 38.8 °F 32.6 °F 31.1 °F 74% 30.27 in 10.0 mi NNW 9.2 mph - N/A   Clear
10:15 AM 40.3 °F 33.4 °F 31.6 °F 71% 30.28 in 10.0 mi NNW 11.5 mph - N/A   Clear
10:35 AM 41.5 °F 35.4 °F 31.5 °F 67% 30.28 in 10.0 mi NNW 10.4 mph - N/A   Clear
10:55 AM 43.9 °F 37.2 °F 29.7 °F 57% 30.29 in 10.0 mi NNW 13.8 mph - N/A   Clear
11:15 AM 45.0 °F 40.1 °F 30.0 °F 56% 30.28 in 10.0 mi NNW 9.2 mph - N/A   Clear
11:35 AM 45.7 °F 40.2 °F 29.5 °F 53% 30.28 in 10.0 mi NNW 11.5 mph - N/A   Clear
11:55 AM 46.4 °F 40.4 °F 28.2 °F 49% 30.28 in 10.0 mi NW 13.8 mph 18.4 mph N/A   Clear
12:15 PM 47.7 °F - 28.0 °F 47% 30.28 in 10.0 mi NW 12.7 mph 16.1 mph N/A   Clear
12:35 PM 48.2 °F - 26.8 °F 43% 30.28 in 10.0 mi NW 11.5 mph 17.3 mph N/A   Clear
12:55 PM 49.1 °F - 23.7 °F 37% 30.28 in 10.0 mi NW 12.7 mph 21.9 mph N/A   Clear
1:15 PM 50.2 °F - 23.0 °F 35% 30.27 in 10.0 mi NW 15.0 mph - N/A   Clear
1:35 PM 50.5 °F - 23.0 °F 34% 30.25 in 10.0 mi NNW 12.7 mph - N/A   Clear
1:55 PM 51.3 °F - 22.1 °F 32% 30.25 in 10.0 mi NW 12.7 mph 18.4 mph N/A   Clear
2:15 PM 52.7 °F - 22.1 °F 30% 30.24 in 10.0 mi NNW 10.4 mph 16.1 mph N/A   Clear
2:35 PM 52.9 °F - 20.8 °F 29% 30.23 in 10.0 mi NW 9.2 mph 16.1 mph N/A   Clear
2:55 PM 53.6 °F - 20.1 °F 27% 30.22 in 10.0 mi NW 11.5 mph - N/A   Clear
3:15 PM 54.0 °F - 19.8 °F 26% 30.21 in 10.0 mi NNW 10.4 mph - N/A   Clear
3:35 PM 54.7 °F - 18.7 °F 24% 30.20 in 10.0 mi WNW 11.5 mph 19.6 mph N/A   Clear
3:55 PM 54.7 °F - 17.8 °F 24% 30.20 in 10.0 mi NNW 9.2 mph - N/A   Clear
4:15 PM 54.9 °F - 17.4 °F 23% 30.19 in 10.0 mi NW 10.4 mph 17.3 mph N/A   Clear
4:35 PM 55.2 °F - 18.0 °F 23% 30.19 in 10.0 mi NNW 9.2 mph - N/A   Clear
4:55 PM 55.4 °F - 19.0 °F 24% 30.18 in 10.0 mi NNW 8.1 mph - N/A   Clear
5:15 PM 55.0 °F - 18.3 °F 24% 30.17 in 10.0 mi NW 8.1 mph - N/A   Clear
5:35 PM 55.0 °F - 18.3 °F 24% 30.16 in 10.0 mi NW 6.9 mph - N/A   Clear
5:55 PM 54.7 °F - 19.0 °F 25% 30.16 in 10.0 mi NW 3.5 mph - N/A   Clear
6:15 PM 53.2 °F - 19.9 °F 27% 30.15 in 10.0 mi Calm Calm - N/A   Clear
6:35 PM 51.6 °F - 20.7 °F 30% 30.15 in 10.0 mi Calm Calm - N/A   Clear
6:55 PM 46.8 °F - 23.5 °F 40% 30.14 in 10.0 mi Calm Calm - N/A   Clear
7:15 PM 44.8 °F - 23.0 °F 42% 30.14 in 10.0 mi Calm Calm - N/A   Clear
7:35 PM 40.3 °F 36.3 °F 25.2 °F 55% 30.14 in 10.0 mi SE 5.8 mph - N/A   Clear
7:55 PM 41.4 °F 39.4 °F 23.4 °F 49% 30.14 in 10.0 mi SE 3.5 mph - N/A   Clear
8:15 PM 37.6 °F 35.1 °F 25.0 °F 60% 30.12 in 10.0 mi SSE 3.5 mph - N/A   Clear
8:35 PM 38.5 °F 36.1 °F 23.9 °F 56% 30.11 in 10.0 mi SE 3.5 mph - N/A   Clear
8:55 PM 37.2 °F 32.6 °F 23.9 °F 59% 30.11 in 10.0 mi South 5.8 mph - N/A   Clear
9:15 PM 35.2 °F 29.5 °F 24.4 °F 65% 30.10 in 10.0 mi South 6.9 mph - N/A   Clear
9:35 PM 34.9 °F 29.9 °F 23.9 °F 64% 30.10 in 10.0 mi South 5.8 mph - N/A   Clear
9:55 PM 35.6 °F 29.2 °F 23.7 °F 62% 30.10 in 10.0 mi South 8.1 mph - N/A   Clear
10:15 PM 34.3 °F 27.7 °F 23.7 °F 65% 30.09 in 10.0 mi South 8.1 mph - N/A   Clear
10:35 PM 34.3 °F 27.7 °F 24.4 °F 67% 30.09 in 10.0 mi South 8.1 mph - N/A   Clear
10:55 PM 33.8 °F 27.0 °F 24.3 °F 68% 30.09 in 10.0 mi South 8.1 mph - N/A   Clear
11:15 PM 34.5 °F 27.9 °F 24.3 °F 66% 30.08 in 10.0 mi South 8.1 mph - N/A   Clear
11:35 PM 34.3 °F 27.0 °F 24.3 °F 67% 30.08 in 10.0 mi South 9.2 mph - N/A   Clear
11:55 PM 37.8 °F 31.8 °F 24.4 °F 59% 30.07 in 10.0 mi South 8.1 mph - N/A   Clear